CAPE
0 0 0 0 0 0 0 0 0 0 0 0 0 0 15 268 341 191 397 460 251 234 385 419 212 267 41 0 0 6 100 157 170 125 126 238 389 470 579 639 682 595 596 623 659 625 738 645 595
0 0 0 0 0 0 0 0 0 0 0 0 0 108 139 334 665 481 399 564 146 236 380 345 94 186 121 76 5 0 29 38 49 50 143 306 326 381 517 607 647 693 681 681 665 591 497 209 301
0 0 0 0 0 0 0 0 0 0 0 0 8 199 320 323 523 345 507 523 223 158 362 330 78 56 69 131 80 12 3 24 38 65 114 141 171 183 233 547 668 742 798 783 737 479 168 46 278
0 0 0 0 0 0 0 0 0 0 0 0 41 333 497 855 477 523 559 440 93 187 277 317 98 27 42 97 90 18 0 0 4 39 63 68 41 35 116 305 611 686 641 439 105 10 19 25 362
0 0 0 0 0 0 0 0 0 0 0 0 112 591 576 1020 916 766 551 412 88 170 251 269 122 81 73 88 85 32 0 0 0 20 50 38 30 2 32 161 281 281 128 9 0 0 73 228 267
0 0 0 0 0 0 0 0 0 0 0 0 0 405 786 1062 1058 790 567 348 283 227 335 280 198 144 86 65 58 46 2 0 0 2 23 59 64 0 0 24 35 9 0 0 0 0 78 208 167
0 0 0 0 0 0 0 0 0 0 0 0 0 570 872 1041 1116 901 700 508 383 350 323 371 358 231 111 45 40 43 19 0 0 0 9 49 55 0 0 0 0 0 0 0 0 0 46 65 13
0 0 0 0 0 0 0 0 0 0 0 0 77 728 840 928 1164 1082 877 644 463 353 293 316 418 350 192 86 61 51 52 0 0 0 0 86 99 0 0 0 0 0 0 0 0 0 0 0 0
0 0 0 0 0 0 0 0 0 0 0 0 0 64 1087 1172 1167 1042 817 660 582 489 342 382 451 453 224 92 123 95 84 25 0 0 0 85 105 28 0 0 0 0 0 0 0 0 0 0 0
0 0 0 0 0 0 0 0 0 0 0 0 0 0 427 1185 1053 901 850 681 549 471 490 508 418 388 362 217 186 124 126 74 22 0 0 6 67 41 0 0 0 0 0 0 0 0 0 0 0
0 0 0 0 0 0 0 0 0 0 0 0 0 0 0 0 299 977 789 666 649 605 550 537 541 580 367 353 200 185 173 109 48 1 0 3 2 93 0 0 0 0 0 0 0 0 0 0 0
0 0 0 0 0 0 0 0 0 0 0 0 0 0 0 0 0 0 193 787 526 672 657 708 704 538 447 460 281 199 183 150 85 13 0 0 0 5 0 0 0 0 0 0 0 0 0 0 0
0 0 0 0 0 0 0 0 0 0 0 0 0 0 0 0 0 0 0 0 875 317 451 790 794 787 576 494 346 266 179 161 121 42 0 0 0 0 0 0 0 0 0 0 0 0 0 0 0
0 0 0 0 0 0 0 0 0 0 0 0 0 0 0 0 0 0 0 0 3 969 714 497 764 868 753 671 451 331 256 164 138 76 10 0 0 0 0 0 0 0 0 0 0 0 0 0 0
0 0 0 0 0 0 0 0 0 0 0 0 0 0 0 0 0 0 0 0 0 0 528 860 568 844 707 671 635 471 326 206 133 89 39 2 0 0 0 0 0 0 0 0 0 0 0 0 0
0 0 0 0 0 0 0 0 0 0 0 0 0 0 0 0 0 0 0 0 0 0 0 308 925 858 910 737 660 533 443 271 164 83 61 13 0 0 0 0 0 0 0 0 0 0 0 0 0
0 0 0 0 0 0 0 0 0 0 0 0 0 0 0 0 0 0 0 0 0 0 0 0 1110 1058 920 857 662 503 465 267 215 122 59 33 4 0 0 0 0 0 0 0 0 0 0 0 0
0 0 0 0 0 0 0 0 0 0 0 0 0 0 0 0 0 0 0 0 0 0 0 0 0 1019 1079 793 601 544 426 276 221 166 93 25 14 2 0 0 0 0 0 0 0 0 0 0 0
0 0 0 0 0 0 0 0 0 0 0 0 0 0 0 0 0 0 0 0 0 0 0 0 0 0 1 914 672 514 482 357 289 198 121 44 16 3 0 0 0 0 0 0 0 0 0 0 0
0 0 0 0 0 0 0 0 0 0 0 0 0 0 0 0 0 0 0 0 0 0 0 0 0 0 0 0 279 781 648 496 359 206 141 102 40 23 2 0 0 0 0 0 0 0 0 0 0
0 0 0 0 0 0 0 0 0 0 0 0 0 0 0 0 0 0 0 0 0 0 0 0 0 0 0 0 0 783 733 505 324 226 211 180 118 42 24 3 0 0 0 0 0 0 0 0 0
0 0 0 0 0 0 0 0 0 0 0 0 0 0 0 0 0 0 0 0 0 0 0 0 0 0 0 0 0 117 703 638 508 378 270 220 119 48 11 9 6 0 0 0 0 0 0 0 0
0 0 0 0 0 0 0 0 0 0 0 0 0 0 0 0 0 0 0 0 0 0 0 0 0 0 0 0 0 0 6 578 649 380 271 199 132 82 0 8 1 1 0 0 0 0 0 0 0
0 0 0 0 0 0 0 0 0 0 0 0 0 0 0 0 0 0 0 0 0 0 0 0 0 0 0 0 0 0 0 0 140 458 334 182 183 140 121 1 3 3 2 0 0 0 0 0 0
0 0 0 0 0 0 0 0 0 0 0 0 0 0 0 0 0 0 0 0 0 0 0 0 0 0 0 0 0 0 0 0 1 9 490 403 222 179 158 53 13 14 8 3 1 0 0 0 0
0 0 0 0 0 0 0 0 0 0 0 0 0 0 0 0 0 0 0 0 0 0 0 0 0 0 0 0 0 0 0 0 0 1 1 337 463 262 242 103 64 39 26 7 4 2 2 1 0
0 0 0 0 0 0 0 0 0 0 0 0 0 0 0 0 0 0 0 0 0 0 0 0 0 0 0 0 0 0 0 1 1 1 1 2 232 667 384 271 145 59 44 56 19 0 2 0 0
0 0 0 0 0 0 0 0 0 0 0 0 0 0 0 0 0 0 0 0 0 0 0 0 0 0 0 0 0 0 0 0 0 2 0 1 2 158 869 550 369 184 84 69 68 23 0 0 0
0 0 0 0 0 0 0 0 0 0 0 0 0 0 0 0 0 0 0 0 0 0 0 0 0 0 0 0 0 0 0 0 0 0 0 1 0 2 6 619 683 503 286 125 83 61 43 0 0
0 0 0 0 0 0 0 0 0 0 0 0 0 0 0 0 0 0 0 0 0 0 0 0 0 0 0 0 0 0 0 0 0 0 0 1 2 1 3 3 11 645 559 332 201 95 74 25 10
CIN
-0 -0 -0 -0 -0 -0 -0 -0 -0 -0 -0 -0 -0 -0 -108 -156 -98 -67 -559 -524 -532 -510 -414 -367 -443 -382 -447 -0 -0 -190 -332 -303 -285 -298 -309 -257 -177 -130 -83 -63 -43 -51 -45 -32 -20 -19 -7 -19 -26
-0 -0 -0 -0 -0 -0 -0 -0 -0 -0 -0 -0 -0 -137 -100 -100 -322 -457 -514 -510 -549 -517 -423 -387 -485 -410 -399 -390 -179 -0 -381 -408 -375 -374 -297 -215 -205 -178 -112 -73 -54 -33 -31 -21 -17 -28 -45 -197 -152
-0 -0 -0 -0 -0 -0 -0 -0 -0 -0 -0 -0 -99 -105 -110 -153 -384 -454 -481 -515 -537 -526 -440 -396 -495 -481 -441 -371 -370 -335 -108 -381 -421 -376 -316 -296 -279 -267 -223 -101 -58 -29 -13 -9 -6 -60 -201 -364 -172
-0 -0 -0 -0 -0 -0 -0 -0 -0 -0 -0 -0 -159 -57 -133 -299 -303 -372 -454 -482 -531 -506 -460 -405 -482 -515 -460 -397 -375 -414 -0 -0 -174 -422 -343 -322 -351 -348 -264 -175 -74 -45 -30 -60 -226 -394 -412 -413 -111
-0 -0 -0 -0 -0 -0 -0 -0 -0 -0 -0 -0 -145 -52 -84 -255 -341 -353 -430 -450 -486 -481 -451 -427 -462 -471 -436 -405 -386 -409 -0 -0 -0 -385 -331 -335 -339 -73 -331 -226 -176 -158 -207 -323 -0 -0 -318 -189 -157
-0 -0 -0 -0 -0 -0 -0 -0 -0 -0 -0 -0 -0 -48 -121 -271 -314 -360 -388 -434 -438 -427 -382 -395 -409 -417 -434 -442 -421 -410 -58 -0 -0 -114 -337 -300 -295 -0 -0 -326 -298 -158 -0 -0 -0 -0 -289 -178 -218
-0 -0 -0 -0 -0 -0 -0 -0 -0 -0 -0 -0 -0 -50 -155 -245 -261 -304 -344 -368 -379 -370 -347 -321 -311 -351 -399 -454 -441 -439 -428 -0 -0 -0 -334 -292 -286 -0 -0 -0 -0 -0 -0 -0 -0 -0 -305 -294 -402
-0 -0 -0 -0 -0 -0 -0 -0 -0 -0 -0 -0 -220 -70 -67 -220 -219 -222 -246 -308 -318 -323 -324 -311 -276 -295 -355 -401 -425 -433 -427 -0 -0 -0 -0 -251 -244 -0 -0 -0 -0 -0 -0 -0 -0 -0 -0 -0 -0
-0 -0 -0 -0 -0 -0 -0 -0 -0 -0 -0 -0 -0 -186 -70 -111 -199 -199 -201 -212 -238 -255 -290 -264 -242 -246 -319 -388 -375 -394 -395 -432 -0 -0 -0 -268 -246 -286 -0 -0 -0 -0 -0 -0 -0 -0 -0 -0 -0
-0 -0 -0 -0 -0 -0 -0 -0 -0 -0 -0 -0 -0 -0 -60 -54 -84 -164 -171 -178 -180 -203 -222 -224 -243 -258 -266 -315 -330 -369 -369 -403 -439 -0 -0 -182 -277 -278 -0 -0 -0 -0 -0 -0 -0 -0 -0 -0 -0
-0 -0 -0 -0 -0 -0 -0 -0 -0 -0 -0 -0 -0 -0 -0 -0 -111 -19 -100 -171 -171 -175 -165 -167 -180 -191 -236 -254 -322 -332 -335 -374 -420 -140 -0 -69 -49 -268 -0 -0 -0 -0 -0 -0 -0 -0 -0 -0 -0
-0 -0 -0 -0 -0 -0 -0 -0 -0 -0 -0 -0 -0 -0 -0 -0 -0 -0 -40 -50 -134 -116 -156 -130 -117 -144 -210 -220 -280 -328 -334 -347 -393 -494 -0 -0 -0 -221 -0 -0 -0 -0 -0 -0 -0 -0 -0 -0 -0
-0 -0 -0 -0 -0 -0 -0 -0 -0 -0 -0 -0 -0 -0 -0 -0 -0 -0 -0 -0 -39 -131 -167 -163 -118 -99 -127 -175 -240 -288 -346 -353 -374 -471 -14 -0 -0 -0 -0 -0 -0 -0 -0 -0 -0 -0 -0 -0 -0
-0 -0 -0 -0 -0 -0 -0 -0 -0 -0 -0 -0 -0 -0 -0 -0 -0 -0 -0 -0 -16 -33 -130 -173 -150 -113 -94 -98 -186 -247 -299 -365 -373 -451 -564 -0 -0 -0 -0 -0 -0 -0 -0 -0 -0 -0 -0 -0 -0
-0 -0 -0 -0 -0 -0 -0 -0 -0 -0 -0 -0 -0 -0 -0 -0 -0 -0 -0 -0 -0 -0 -30 -94 -173 -147 -126 -102 -106 -177 -252 -327 -398 -465 -541 -505 -0 -0 -0 -0 -0 -0 -0 -0 -0 -0 -0 -0 -0
-0 -0 -0 -0 -0 -0 -0 -0 -0 -0 -0 -0 -0 -0 -0 -0 -0 -0 -0 -0 -0 -0 -0 -144 -69 -103 -112 -130 -123 -134 -187 -293 -380 -466 -515 -606 -0 -0 -0 -0 -0 -0 -0 -0 -0 -0 -0 -0 -0
-0 -0 -0 -0 -0 -0 -0 -0 -0 -0 -0 -0 -0 -0 -0 -0 -0 -0 -0 -0 -0 -0 -0 -0 -63 -56 -84 -83 -113 -134 -131 -245 -322 -407 -497 -562 -664 -0 -0 -0 -0 -0 -0 -0 -0 -0 -0 -0 -0
-0 -0 -0 -0 -0 -0 -0 -0 -0 -0 -0 -0 -0 -0 -0 -0 -0 -0 -0 -0 -0 -0 -0 -0 -0 -49 -15 -34 -46 -70 -87 -179 -236 -348 -454 -541 -601 -696 -0 -0 -0 -0 -0 -0 -0 -0 -0 -0 -0
-0 -0 -0 -0 -0 -0 -0 -0 -0 -0 -0 -0 -0 -0 -0 -0 -0 -0 -0 -0 -0 -0 -0 -0 -0 -0 -0 -6 -36 -56 -74 -159 -185 -251 -336 -466 -541 -624 -0 -0 -0 -0 -0 -0 -0 -0 -0 -0 -0
-0 -0 -0 -0 -0 -0 -0 -0 -0 -0 -0 -0 -0 -0 -0 -0 -0 -0 -0 -0 -0 -0 -0 -0 -0 -0 -0 -0 -131 -40 -70 -95 -134 -187 -248 -357 -464 -549 -631 -0 -0 -0 -0 -0 -0 -0 -0 -0 -0
-0 -0 -0 -0 -0 -0 -0 -0 -0 -0 -0 -0 -0 -0 -0 -0 -0 -0 -0 -0 -0 -0 -0 -0 -0 -0 -0 -0 -0 -37 -47 -90 -110 -156 -196 -309 -417 -523 -557 -626 -0 -0 -0 -0 -0 -0 -0 -0 -0
-0 -0 -0 -0 -0 -0 -0 -0 -0 -0 -0 -0 -0 -0 -0 -0 -0 -0 -0 -0 -0 -0 -0 -0 -0 -0 -0 -0 -0 -142 -35 -59 -121 -160 -189 -238 -304 -394 -488 -503 -566 -98 -0 -0 -0 -0 -0 -0 -0
-0 -0 -0 -0 -0 -0 -0 -0 -0 -0 -0 -0 -0 -0 -0 -0 -0 -0 -0 -0 -0 -0 -0 -0 -0 -0 -0 -0 -0 -0 -336 -47 -62 -128 -151 -179 -218 -267 -26 -424 -234 -524 -563 -27 -0 -0 -0 -0 -0
-0 -0 -0 -0 -0 -0 -0 -0 -0 -0 -0 -0 -0 -0 -0 -0 -0 -0 -0 -0 -0 -0 -0 -0 -0 -0 -0 -0 -0 -0 -0 -0 -219 -76 -121 -161 -198 -239 -275 -107 -433 -459 -496 -0 -0 -0 -0 -0 -0
-0 -0 -0 -0 -0 -0 -0 -0 -0 -0 -0 -0 -0 -0 -0 -0 -0 -0 -0 -0 -0 -0 -0 -0 -0 -0 -0 -0 -0 -0 -0 -0 -0 -117 -44 -84 -163 -218 -278 -316 -432 -396 -443 -481 -329 -0 -0 -0 -0
-0 -0 -0 -0 -0 -0 -0 -0 -0 -0 -0 -0 -0 -0 -0 -0 -0 -0 -0 -0 -0 -0 -0 -0 -0 -0 -0 -0 -0 -0 -0 -0 -0 -0 -0 -78 -55 -160 -200 -266 -299 -367 -348 -369 -450 -498 -493 -269 -0
-0 -0 -0 -0 -0 -0 -0 -0 -0 -0 -0 -0 -0 -0 -0 -0 -0 -0 -0 -0 -0 -0 -0 -0 -0 -0 -0 -0 -0 -0 -0 -0 -0 -0 -0 -0 -92 -9 -105 -168 -233 -279 -294 -291 -331 -7 -418 -189 -0
-0 -0 -0 -0 -0 -0 -0 -0 -0 -0 -0 -0 -0 -0 -0 -0 -0 -0 -0 -0 -0 -0 -0 -0 -0 -0 -0 -0 -0 -0 -0 -0 -0 -0 -0 -0 -0 -144 -1 -41 -110 -171 -224 -216 -224 -272 -0 -0 -0
-0 -0 -0 -0 -0 -0 -0 -0 -0 -0 -0 -0 -0 -0 -0 -0 -0 -0 -0 -0 -0 -0 -0 -0 -0 -0 -0 -0 -0 -0 -0 -0 -0 -0 -0 -0 -0 -0 -83 -25 -9 -56 -126 -148 -142 -208 -257 -0 -0
-0 -0 -0 -0 -0 -0 -0 -0 -0 -0 -0 -0 -0 -0 -0 -0 -0 -0 -0 -0 -0 -0 -0 -0 -0 -0 -0 -0 -0 -0 -0 -0 -0 -0 -0 -0 -0 -0 -0 -0 -129 -1 -1 -64 -97 -127 -180 -216 -284
Wind_Speed
21 19 15 13 11 7 9 14 16 19 17 14 14 13 10 13 10 13 14 17 21 23 23 24 26 27 28 28 28 27 26 28 28 27 27 26 25 25 24 24 25 25 27 27 19 16 15 11 8
19 16 13 11 7 5 10 17 18 20 20 18 12 13 15 14 13 13 15 17 21 21 21 22 25 26 27 27 28 27 25 28 28 27 27 26 25 24 24 25 25 26 28 26 19 17 9 8 7
16 14 11 9 9 8 11 17 19 20 16 13 13 15 16 16 16 15 13 17 19 19 19 20 23 24 26 26 27 27 27 26 28 27 27 26 25 24 25 25 25 25 25 22 17 6 5 4 14
15 13 11 8 7 9 12 17 19 18 16 15 14 13 14 15 13 11 12 15 17 16 18 19 21 22 24 25 25 27 27 26 27 27 26 26 25 24 24 24 25 23 21 17 4 3 4 8 21
13 12 10 10 11 13 13 17 19 18 18 18 17 13 13 15 14 11 11 11 13 14 16 17 18 20 22 24 24 25 26 26 25 26 26 26 25 24 23 24 26 21 17 10 4 3 5 19 23
13 12 10 11 13 14 14 19 19 18 20 18 15 14 14 15 13 10 8 8 8 10 12 14 16 17 19 21 23 24 24 25 25 24 25 25 25 23 23 25 26 21 17 12 6 5 17 22 23
12 12 10 10 14 14 17 21 19 18 20 20 20 16 14 16 13 9 6 5 5 5 7 8 11 13 16 19 21 22 23 23 24 24 24 23 23 22 22 24 26 23 19 14 9 12 20 21 22
12 12 10 12 16 16 20 18 19 18 18 20 19 19 18 16 13 10 7 4 3 1 3 5 7 9 10 14 18 19 21 22 22 23 23 22 22 20 20 21 23 23 19 16 14 18 20 21 22
13 12 12 13 15 21 21 19 21 20 16 20 21 20 19 16 13 10 8 5 3 2 2 3 3 4 6 9 14 16 17 19 20 21 22 21 20 16 14 18 20 18 18 16 16 18 18 18 19
13 12 13 13 17 21 22 20 22 19 21 23 25 24 20 18 16 13 10 8 7 4 2 4 5 5 3 2 7 11 13 15 17 18 20 19 18 16 9 10 14 13 13 13 14 15 14 14 16
14 13 15 17 19 21 22 19 18 19 22 25 27 27 25 22 21 19 16 14 11 10 9 8 9 8 7 6 4 6 8 11 14 16 18 19 14 13 12 6 1 6 8 8 9 10 10 12 15
11 15 16 18 17 20 20 18 17 20 23 25 25 24 24 24 24 25 24 17 16 16 13 11 12 11 11 11 8 6 6 6 10 14 16 17 16 12 10 12 10 6 6 7 6 7 8 10 11
15 18 16 21 17 23 20 16 16 25 27 26 26 26 26 26 26 26 26 26 19 8 13 14 13 14 14 15 14 11 7 6 6 11 14 14 13 15 10 10 11 10 5 4 4 5 7 7 9
16 16 19 23 23 24 19 19 23 30 30 27 26 27 26 26 27 28 28 28 27 27 22 18 16 16 18 18 18 17 15 11 8 8 13 15 13 12 13 10 11 9 8 4 2 3 4 6 6
17 19 20 25 26 25 26 25 29 32 30 28 27 26 27 27 27 29 30 29 29 30 31 23 21 17 19 21 22 22 21 19 14 11 11 13 14 14 12 13 14 9 5 2 1 6 10 5 5
20 22 24 26 28 27 26 32 32 34 31 30 28 29 29 29 29 30 30 30 30 31 32 32 23 23 20 19 23 25 25 25 22 17 14 14 14 14 14 13 13 14 8 3 3 5 7 6 4
25 24 25 25 26 28 27 31 37 35 30 30 31 30 31 33 32 33 33 32 31 31 32 30 27 26 26 27 26 26 29 30 29 26 19 17 15 14 14 14 12 11 12 10 4 5 9 11 7
26 26 27 30 30 31 30 32 34 31 29 28 30 32 32 33 35 35 35 33 32 31 31 29 28 31 29 29 31 32 30 33 34 31 27 22 19 17 15 13 12 12 12 12 8 6 6 13 9
23 27 30 31 31 33 33 34 35 30 29 29 31 32 33 34 34 35 34 34 34 32 32 31 30 31 29 32 31 31 32 31 35 37 35 31 27 22 19 18 15 14 15 13 13 8 9 6 9
27 31 33 30 35 34 34 34 31 28 28 28 30 33 35 36 37 36 36 35 33 33 33 32 31 31 31 33 35 32 33 33 32 35 37 36 33 29 24 21 19 17 15 15 14 12 9 8 7
27 32 34 34 35 30 32 30 31 29 28 30 31 32 35 36 37 38 37 36 35 34 34 33 32 31 31 34 37 36 33 33 31 32 37 38 37 35 32 28 25 23 21 18 17 16 15 13 11
28 31 33 34 36 36 31 37 29 31 31 32 33 34 36 37 36 36 37 37 36 35 34 33 32 32 31 31 32 37 39 39 37 34 34 35 35 39 40 39 34 30 26 25 20 19 17 16 17
27 30 29 30 30 31 30 32 29 30 33 33 33 33 33 36 36 37 36 36 36 35 34 33 32 32 32 31 31 33 36 41 40 39 36 36 36 35 38 40 39 38 34 30 27 24 21 20 19
31 29 29 28 28 32 26 33 30 29 28 30 31 30 32 36 35 36 35 34 35 34 34 33 33 32 32 32 31 32 35 39 39 41 40 38 37 36 37 37 40 40 41 37 32 30 28 25 24
34 32 32 31 33 31 28 32 26 21 19 22 27 28 30 34 35 36 36 35 34 34 34 33 33 33 32 32 32 32 34 37 39 43 44 43 41 40 39 36 37 40 42 42 39 37 35 31 30
30 30 30 33 33 33 32 27 25 14 13 18 25 29 30 32 34 35 35 34 34 33 33 33 33 34 33 32 33 33 33 34 36 39 43 45 45 44 42 39 39 38 40 42 42 40 40 39 38
27 30 24 27 27 30 28 27 22 12 12 18 27 35 35 33 34 35 35 34 34 34 34 33 33 34 35 34 34 35 34 35 36 38 38 40 43 45 43 41 41 42 41 40 39 42 42 41 42
25 23 28 29 33 34 30 32 27 21 18 22 30 37 39 36 35 35 35 35 35 34 34 34 33 34 34 36 34 35 37 36 37 37 39 39 40 41 45 42 42 42 43 43 40 40 41 42 44
25 25 26 25 25 29 33 28 24 23 24 25 28 39 41 37 36 36 35 36 35 34 33 34 35 34 34 35 37 37 37 39 38 39 39 40 40 41 42 43 43 44 43 43 42 43 41 40 43
21 21 23 27 27 23 24 26 23 25 26 25 24 40 38 33 35 35 34 34 34 34 33 34 35 35 34 36 36 37 38 39 40 40 41 41 42 41 42 44 45 46 47 44 45 45 46 44 43
Wind_Direction
285 279 280 286 292 313 331 319 321 306 306 349 332 10 32 6 38 26 63 100 109 111 109 107 106 103 100 98 95 93 93 100 99 98 95 92 88 84 79 78 78 78 80 78 67 65 65 67 77
284 281 286 295 290 299 315 316 311 306 293 280 11 20 6 3 352 20 83 105 113 110 107 106 108 103 99 98 98 97 93 100 101 99 96 93 88 83 81 82 81 81 84 80 70 68 73 71 73
291 284 289 293 295 299 304 316 316 306 319 316 333 347 354 6 16 78 72 105 110 109 108 107 109 103 100 97 99 99 98 98 104 101 98 93 89 86 85 84 84 83 81 75 70 88 143 144 63
298 289 289 287 293 312 315 316 327 323 315 329 323 339 3 340 19 10 83 107 114 110 110 110 109 104 101 101 99 101 102 101 103 103 100 96 91 87 87 86 88 84 79 72 90 151 164 64 70
301 297 285 277 280 292 308 320 330 331 327 312 317 327 348 339 352 42 77 95 114 115 114 114 111 108 104 105 103 103 105 105 103 104 102 99 94 92 89 91 93 85 76 66 81 141 66 69 74
301 298 287 274 275 287 305 314 327 336 333 319 317 324 340 343 354 25 55 83 96 111 115 115 114 111 108 107 108 106 106 108 108 106 105 102 99 94 94 98 99 87 79 69 58 51 69 75 75
300 298 290 286 279 281 296 305 325 323 337 328 303 318 333 345 353 358 15 55 79 106 114 112 112 111 109 110 111 110 109 110 111 111 108 105 102 97 98 101 105 95 84 69 52 59 77 75 74
307 299 304 294 279 281 297 308 313 328 335 330 328 312 311 337 353 356 2 18 29 63 133 128 117 113 108 110 115 113 113 113 114 115 113 109 105 102 100 102 105 102 91 78 64 75 81 79 80
301 297 293 295 298 288 297 307 314 309 324 345 343 336 330 336 357 354 352 354 348 328 247 198 171 135 119 113 118 116 114 116 115 117 119 112 108 99 97 102 107 102 96 87 78 82 82 80 77
305 300 301 313 300 296 299 305 310 310 323 313 320 326 334 335 322 324 321 313 304 296 235 233 232 225 184 161 124 122 117 118 118 120 123 118 111 107 93 97 103 100 94 88 85 82 75 70 74
309 306 307 311 305 300 300 308 323 320 310 316 313 311 317 322 313 306 303 300 295 290 282 271 257 245 236 242 186 142 128 124 126 126 128 125 113 111 111 98 291 93 91 81 75 73 68 70 80
329 319 320 316 326 318 310 309 321 328 312 312 318 322 321 317 311 302 295 295 293 283 278 275 265 254 246 249 225 200 168 148 138 139 136 134 128 121 121 124 116 103 95 89 75 72 70 70 71
329 318 328 327 333 334 323 327 326 324 319 322 322 323 321 315 309 307 303 296 294 273 272 269 265 259 255 249 244 236 220 199 172 153 149 145 139 138 129 133 132 126 105 89 76 71 74 68 63
325 325 333 325 322 322 323 324 326 315 317 322 324 323 324 322 313 308 306 302 293 286 281 274 264 259 258 252 246 244 245 238 223 191 168 161 155 148 145 142 145 140 131 108 67 55 78 78 62
342 324 333 333 327 322 310 306 311 315 317 321 322 323 323 321 322 313 308 303 302 295 282 277 269 258 261 260 253 249 249 248 239 230 194 179 171 166 160 157 156 154 149 147 318 306 293 326 0
338 342 323 330 338 329 321 298 311 317 320 315 318 317 317 317 316 317 311 308 306 301 291 278 273 266 261 258 259 253 251 250 249 241 227 201 189 182 176 172 170 165 163 200 272 289 298 306 334
344 334 336 334 345 336 335 313 309 314 320 318 312 313 313 311 312 312 311 308 307 305 302 293 273 269 265 262 261 258 256 253 251 249 239 221 214 203 195 189 187 181 177 177 206 273 288 287 298
337 340 339 334 336 337 332 322 319 321 325 323 323 314 311 310 309 310 308 306 305 306 305 299 289 272 269 265 263 261 260 257 253 249 248 239 231 226 220 219 208 199 194 191 193 218 275 288 289
353 342 336 335 336 332 329 325 324 326 325 321 324 324 317 312 309 309 309 305 302 304 304 301 291 284 280 265 261 260 258 260 255 251 251 251 248 242 237 245 239 219 205 206 202 212 201 222 287
351 341 336 338 336 334 331 329 332 334 330 329 324 328 324 317 312 309 306 305 303 299 300 298 296 288 282 273 267 262 261 261 258 253 252 252 252 250 244 240 241 235 234 222 217 217 242 241 226
353 346 340 336 339 342 336 331 334 334 334 331 330 329 331 327 318 309 305 302 301 299 297 296 294 294 286 283 269 264 263 263 262 258 254 252 252 253 252 251 251 248 246 237 229 225 222 235 236
350 347 342 339 339 332 342 322 331 334 334 334 334 333 332 330 325 317 310 304 300 298 297 296 293 291 293 290 280 268 260 261 261 262 260 256 255 255 255 256 256 255 254 253 243 244 235 244 222
352 349 347 345 344 342 341 329 328 334 331 334 334 336 341 337 330 324 315 313 305 300 297 296 296 291 291 293 288 276 269 264 262 262 262 259 259 258 257 256 256 256 257 257 255 252 243 240 249
351 353 351 353 353 344 347 338 330 335 338 339 343 345 345 338 335 328 321 317 314 308 302 298 298 294 290 290 289 283 275 270 267 264 263 264 262 262 259 258 256 256 257 257 256 255 254 251 249
355 356 351 350 348 346 349 340 337 348 1 358 354 351 345 340 337 332 328 322 317 315 308 302 300 296 295 290 289 288 284 276 272 268 266 264 265 263 261 260 258 258 257 257 258 257 257 254 256
356 1 357 348 347 344 343 343 345 360 8 0 353 349 341 334 330 332 329 328 324 321 315 306 303 301 297 293 289 290 290 284 279 276 272 269 266 265 264 261 260 260 259 258 257 257 258 259 259
356 356 5 357 355 349 354 351 349 350 344 344 339 334 333 326 323 327 326 325 327 326 326 316 304 304 302 297 292 289 290 288 284 281 281 274 273 267 266 263 261 260 261 259 258 257 257 258 259
6 8 358 360 352 350 353 348 344 343 331 332 331 327 315 314 316 320 319 323 323 322 325 326 317 305 303 302 297 292 288 290 289 286 282 283 279 278 267 265 263 262 261 260 259 259 259 258 259
357 359 4 6 4 355 353 360 8 359 347 334 328 318 308 307 307 308 313 318 322 324 324 327 327 318 309 304 300 296 292 289 290 287 286 284 284 281 276 272 266 265 263 262 260 259 261 259 260
357 359 4 358 358 0 360 358 10 5 355 345 336 313 305 310 310 309 308 312 316 320 319 323 326 326 321 315 307 300 295 292 289 289 288 286 283 284 281 275 272 270 266 264 262 262 260 260 260